Weather in Rostilovo

Russia / Vologda Oblast     58°47′58″N   40°15′55″E
temp.,
°C
wind,
m/s
gust,
m/s
humid.,
%
clouds,
%
prec.,
mm/h
press.,
hPa
HPBL,
m
8 march, mon
mon800:00−14w229040 0.0 99120
03:00−15w229320 0.0 99221
06:00−14nw259782 0.0 993128
09:00−11n479291 0.4 996511
12:00−10n5889100 0.3 999723
15:00−10n4886100 0.4 1002834
18:00−12n4993100 0.2 1005652
21:00−14n41093100 0.3 1008610
9 march, tue
tue900:00−17n3896100 0.1 1010336
03:00−20n3799100 0.1 1013207
06:00−23n369994 0.0 1014179
09:00−22n369694 0.0 1016264
12:00−19n3590100 0.0 1018406
15:00−17n4688100 0.0 1019567
18:00−20n3894100 0.0 1020413
21:00−22nne3996100 0.1 1023410
10 march, wed
wed1000:00−25nne389779 0.0 1025197
03:00−26n259848 0.0 1026111
06:00−27nnw25970 0.0 102794
09:00−23nw35910 0.0 1027223
12:00−17nw368320 0.0 1027480
15:00−15nw368860 0.1 1027576
18:00−17nw2596100 0.1 1027154
21:00−19nw2599100 0.1 1028124
11 march, thu
thu1100:00−20nw2310098 0.0 102951
03:00−20nw2310094 0.1 103042
06:00−20wnw2310091 0.0 103052
09:00−16wnw249481 0.0 1031171
12:00−10wnw238240 0.0 1030348
15:00−8wsw238227 0.0 1030557
18:00−12wsw359678 0.0 1029126
21:00−17sw249644 0.0 102984
12 march, fri
fri1200:00−17sw379730 0.0 1028137
03:00−18sw3119326 0.0 1027204
06:00−18sw410890 0.0 1027250
09:00−15sw410840 0.0 1026269
12:00−10ssw48770 0.0 1026391
15:00−8ssw59780 0.0 1024554
18:00−11s511870 0.0 1023418
21:00−12s513910 0.0 1023419